This is the latest recevied weather packets stored in our database for station/object DG0PX-12. If no packets are shown the sender has not sent any weather packets the latest 10 day(s).
| Time | Temp. | Humidity | Pressure | Rain* | Wind** | Luminosity | Snow |
|---|---|---|---|---|---|---|---|
| 1788069593 | 25° C | 49% | 950.8 hPa | - | - | - | - |
| 1788068693 | 23.89° C | 53% | 950.6 hPa | - | - | - | - |
| 1788067793 | 23.33° C | 52% | 950.5 hPa | - | - | - | - |
| 1788066893 | 23.33° C | 52% | 950.5 hPa | - | - | - | - |
| 1788065993 | 23.33° C | 50% | 950.5 hPa | - | - | - | - |
| 1788065093 | 22.22° C | 56% | 950.2 hPa | - | - | - | - |
| 1788064193 | 23.33° C | 53% | 950.3 hPa | - | - | - | - |
| 1788063293 | 23.89° C | 51% | 950.2 hPa | - | - | - | - |
| 1788062393 | 23.33° C | 52% | 950.4 hPa | - | - | - | - |
| 1788061493 | 22.78° C | 54% | 950.3 hPa | - | - | - | - |
| 1788060593 | 23.33° C | 53% | 950.4 hPa | - | - | - | - |
| 1788059692 | 22.22° C | 55% | 950.4 hPa | - | - | - | - |
| 1788058792 | 22.78° C | 56% | 950.3 hPa | - | - | - | - |
| 1788057892 | 22.78° C | 55% | 950.4 hPa | - | - | - | - |
| 1788056992 | 23.89° C | 50% | 950.3 hPa | - | - | - | - |
| 1788056092 | 23.33° C | 53% | 950.3 hPa | - | - | - | - |
| 1788055192 | 22.78° C | 55% | 950.4 hPa | - | - | - | - |
| 1788054292 | 23.89° C | 50% | 950.5 hPa | - | - | - | - |
| 1788053392 | 21.67° C | 59% | 950.3 hPa | - | - | - | - |
| 1788052492 | 23.89° C | 51% | 950.4 hPa | - | - | - | - |
| 1788051592 | 23.33° C | 52% | 950.4 hPa | - | - | - | - |
| 1788050692 | 21.67° C | 57% | 950.2 hPa | - | - | - | - |
| 1788049792 | 22.22° C | 56% | 950.2 hPa | - | - | - | - |
| 1788048892 | 22.22° C | 56% | 950.2 hPa | - | - | - | - |
| 1788047992 | 22.78° C | 55% | 950.2 hPa | - | - | - | - |
* Rain since midnight (hover to see other rain measurements)
** Current wind speed in m/s (hover to see current wind gust speed)